This is the latest recevied weather packets stored in our database for station/object SR5NLK-1. If no packets are shown the sender has not sent any weather packets the latest 10 day(s).
| Time | Temp. | Humidity | Pressure | Rain* | Wind** | Luminosity | Snow |
|---|---|---|---|---|---|---|---|
| 1787407812 | 21.11° C | 64% | 1084.7 hPa | 0 mm | - | - | - |
| 1787407512 | 21.11° C | 64% | 1081.5 hPa | 0 mm | - | - | - |
| 1787407261 | 20.56° C | 65% | 1091 hPa | 0 mm | - | - | - |
| 1787407211 | 20.56° C | 65% | 1091 hPa | 0 mm | - | - | - |
| 1787406911 | 20.56° C | 66% | 1035.8 hPa | 0 mm | - | - | - |
| 1787406612 | 20° C | 67% | 1024 hPa | 0 mm | - | - | - |
| 1787406348 | 20° C | 67% | 1075.2 hPa | 0 mm | - | - | - |
| 1787406312 | 20° C | 67% | 1075.2 hPa | 0 mm | - | - | - |
| 1787406082 | 20° C | 68% | 1075.3 hPa | 0 mm | - | - | - |
| 1787406011 | 20° C | 68% | 1075.3 hPa | 0 mm | - | - | - |
| 1787405712 | 20° C | 69% | 1065.8 hPa | 0 mm | - | - | - |
| 1787405412 | 20° C | 71% | 1041.3 hPa | 0 mm | - | - | - |
| 1787405112 | 19.44° C | 72% | 1016.2 hPa | 0 mm | - | - | - |
| 1787404812 | 18.89° C | 74% | 1063.3 hPa | 0 mm | - | - | - |
| 1787404511 | 18.33° C | 73% | 1053.3 hPa | 0 mm | - | - | - |
| 1787404269 | 18.89° C | 71% | 1059.5 hPa | 0 mm | - | - | - |
| 1787404211 | 18.89° C | 71% | 1059.5 hPa | 0 mm | - | - | - |
| 1787404031 | 18.89° C | 70% | 1086.3 hPa | 0 mm | - | - | - |
| 1787403911 | 18.89° C | 69% | 1083.1 hPa | 0 mm | - | - | - |
| 1787403611 | 19.44° C | 67% | 1075.2 hPa | 0 mm | - | - | - |
| 1787403311 | 20° C | 65% | 1088 hPa | 0 mm | - | - | - |
| 1787403043 | 20.56° C | 64% | 1050.4 hPa | 0 mm | - | - | - |
| 1787403011 | 20.56° C | 64% | 1050.4 hPa | 0 mm | - | - | - |
| 1787402711 | 20.56° C | 64% | 1056 hPa | 0 mm | - | - | - |
| 1787402473 | 20.56° C | 63% | 1088.8 hPa | 0 mm | - | - | - |
* Rain latest hour (hover to see other rain measurements)
** Current wind speed in m/s (hover to see current wind gust speed)